Waarnemingen

Advertentie
Mijn weer
D15-FA-1, Nederland (6201): temperatuur & dauwpunt: 18.04.2018 10:00:00 - 24.04.2018 10:00:00 (CEST)D15-FA-1, Nederland (6201): windsnelheid & windstoten: 18.04.2018 10:00:00 - 24.04.2018 10:00:00 (CEST)D15-FA-1, Nederland (6201): windrichting: 18.04.2018 10:00:00 - 24.04.2018 10:00:00 (CEST)D15-FA-1, Nederland (6201): luchtdruk: 18.04.2018 10:00:00 - 24.04.2018 10:00:00 (CEST)D15-FA-1, Nederland (6201): zicht: 18.04.2018 10:00:00 - 24.04.2018 10:00:00 (CEST)
Datum & Tijd tt [°C] td [°C] ff [km/u] ff [kn] fx [km/u] fx [kn] dd ppp [hPa] vv [km]
24.04.2018 10:00:00 8,4 5,7 37 20 40 21 W 1010,4 10
24.04.2018 09:00:00 8,5 5,7 35 19 40 21 W 1010,0 10
24.04.2018 08:00:00 8,5 5,5 46 25 47 25 W 1009,5 10
24.04.2018 07:00:00 8,4 6,1 48 26 47 25 W 1008,8 10
24.04.2018 06:00:00 8,6 6,8 42 23 47 25 W 1008,4 10
24.04.2018 05:00:00 9,1 7,2 42 23 43 23 WZW 1008,1 10
24.04.2018 04:00:00 8,9 7,0 36 19 47 25 WZW 1007,8 17
24.04.2018 03:00:00 8,9 7,1 37 20 36 19 WZW 1007,9 10
24.04.2018 02:00:00 8,9 6,7 42 23 43 23 ZW 1008,1 10
24.04.2018 01:00:00 9,1 6,6 41 22 54 29 ZW 1008,4 10
24.04.2018 00:00:00 8,4 6,6 42 23 43 23 ZZW 1009,1 10
23.04.2018 23:00:00 8,6 5,8 44 24 50 27 ZW 1010,1 10
23.04.2018 22:00:00 8,3 5,9 35 19 47 25 ZZW 1010,3 10
23.04.2018 21:00:00 8,9 5,8 37 20 43 23 ZW 1011,1 10
23.04.2018 20:00:00 8,3 5,9 25 14 36 19 ZW 1011,2 24
23.04.2018 19:00:00 8,7 5,6 34 18 36 19 ZW 1011,5 10
23.04.2018 18:00:00 8,5 5,7 29 16 32 18 ZW 1011,9 26
23.04.2018 17:00:00 8,8 5,4 29 16 32 18 WZW 1012,1 32
23.04.2018 16:00:00 8,7 5,6 29 16 36 19 WZW 1012,5 24
23.04.2018 15:00:00 8,4 6,0 29 16 36 19 WZW 1012,4 23
23.04.2018 14:00:00 8,7 5,9 37 20 40 21 WZW 1012,0 10
23.04.2018 13:00:00 8,6 6,2 32 18 40 21 WZW 1011,4 18
23.04.2018 12:00:00 8,4 6,3 32 18 40 21 WZW 1011,2 19
23.04.2018 11:00:00 8,4 6,4 32 18 36 19 WZW 1010,6 20
23.04.2018 10:00:00 8,7 6,4 37 20 43 23 WZW 1010,0 10
23.04.2018 09:00:00 8,7 6,4 32 18 43 23 WZW 1009,4 20
23.04.2018 08:00:00 8,6 6,3 29 16 36 19 WZW 1009,0 25
23.04.2018 07:00:00 9,0 6,2 32 18 36 19 WZW 1008,2 28
23.04.2018 06:00:00 9,1 6,4 39 21 36 19 WZW 1008,2 10
23.04.2018 05:00:00 8,9 6,2 25 14 29 16 WZW 1008,5 36
23.04.2018 04:00:00 9,0 6,3 25 14 29 16 WZW 1008,6 20
23.04.2018 03:00:00 9,1 7,6 25 14 32 18 W 1008,5 14
23.04.2018 02:00:00 8,7 7,8 22 12 29 16 W 1008,2 6
23.04.2018 01:00:00 8,7 7,6 14 8 18 10 WNW 1008,2 9
23.04.2018 00:00:00 9,8 8,6 5 3 14 8 - 1008,1 10
22.04.2018 23:00:00 9,2 7,9 8 4 14 8 NW 1007,4 10
22.04.2018 22:00:00 9,2 7,9 13 7 25 14 WNW 1006,8 10
22.04.2018 21:00:00 10,5 8,0 31 17 36 19 WNW 1006,7 6
22.04.2018 20:00:00 8,7 7,4 11 6 32 18 NW 1006,7 6
22.04.2018 19:00:00 9,3 7,6 25 14 32 18 W 1006,4 7
22.04.2018 18:00:00 9,4 7,4 25 14 43 23 ZW 1006,4 7
22.04.2018 17:00:00 9,3 7,4 32 18 40 21 ZZW 1006,5 7
22.04.2018 16:00:00 9,4 7,4 41 22 50 27 Z 1006,9 10
22.04.2018 15:00:00 9,1 7,2 48 26 50 27 ZZO 1007,3 4,3
22.04.2018 14:00:00 9,3 7,2 55 30 54 29 Z 1007,9 6
22.04.2018 13:00:00 8,8 7,1 54 29 54 29 ZZO 1008,4 5
22.04.2018 12:00:00 8,7 7,0 55 30 50 27 ZZO 1009,3 6
22.04.2018 11:00:00 9,0 7,1 41 22 50 27 ZZO 1010,0 6
22.04.2018 10:00:00 8,7 7,0 39 21 50 27 ZZO 1010,1 10
22.04.2018 09:00:00 8,8 7,1 52 28 54 29 Z 1011,3 10
22.04.2018 08:00:00 8,7 7,1 41 22 47 25 ZZO 1012,0 10
22.04.2018 07:00:00 9,3 7,2 36 19 54 29 ZZO 1012,5 23
22.04.2018 06:00:00 8,7 6,6 55 30 54 29 ZZO 1012,7 10
22.04.2018 05:00:00 8,9 6,4 47 25 50 27 ZZO 1013,9 30
22.04.2018 04:00:00 8,7 6,0 47 25 50 27 ZZO 1014,5 24
22.04.2018 03:00:00 8,9 5,2 50 27 47 25 ZO 1015,4 10
22.04.2018 02:00:00 8,9 5,4 48 26 50 27 ZZO 1016,1 10
22.04.2018 01:00:00 9,0 5,5 52 28 50 27 ZO 1016,6 10
22.04.2018 00:00:00 9,0 5,8 50 27 47 25 OZO 1017,3 10
21.04.2018 23:00:00 8,8 6,1 44 24 47 25 OZO 1018,1 10
21.04.2018 22:00:00 8,6 6,5 42 23 40 21 OZO 1018,7 10
21.04.2018 21:00:00 9,0 6,4 41 22 40 21 ZO 1019,4 10
21.04.2018 20:00:00 8,9 7,1 29 16 32 18 ZO 1020,1 46
21.04.2018 19:00:00 9,0 7,0 29 16 29 16 OZO 1020,6 49
21.04.2018 18:00:00 9,4 7,3 25 14 25 14 OZO 1021,2 37
21.04.2018 17:00:00 9,7 8,0 18 10 18 10 OZO 1021,9 29
21.04.2018 16:00:00 10,3 7,9 11 6 11 6 O 1022,7 32
21.04.2018 15:00:00 10,6 7,2 9 5 11 6 OZO 1023,2 10
21.04.2018 14:00:00 10,5 6,9 4 2 7 4 - 1023,5 10
21.04.2018 13:00:00 10,2 6,3 4 2 4 2 - 1024,1 10
21.04.2018 12:00:00 9,0 6,9 4 2 11 6 NNO 1024,4 10
21.04.2018 11:00:00 9,2 5,4 8 4 7 4 NNW 1024,6 10
21.04.2018 10:00:00 8,5 5,9 11 6 11 6 NW 1024,4 10
21.04.2018 09:00:00 10,5 6,1 11 6 11 6 NNW 1024,1 10
21.04.2018 08:00:00 8,9 6,7 11 6 14 8 NNW 1024,0 10
21.04.2018 07:00:00 8,3 6,4 11 6 14 8 N 1023,7 29
21.04.2018 06:00:00 7,6 6,4 11 6 14 8 NNW 1023,4 18
21.04.2018 05:00:00 7,7 6,9 14 8 14 8 WNW 1023,6 18
21.04.2018 04:00:00 7,6 6,8 11 6 18 10 NW 1023,6 16
21.04.2018 03:00:00 9,5 7,5 14 8 18 10 WNW 1023,6 37
21.04.2018 02:00:00 8,4 7,1 9 5 11 6 WNW 1023,9 10
21.04.2018 01:00:00 8,4 7,2 9 5 14 8 NNW 1024,0 10
21.04.2018 00:00:00 8,2 7,1 11 6 18 10 NNO 1023,9 10
20.04.2018 23:00:00 9,1 7,4 21 11 22 12 NNO 1023,5 10
20.04.2018 22:00:00 8,6 7,2 14 8 22 12 N 1023,7 38
20.04.2018 21:00:00 8,7 7,1 22 12 25 14 N 1023,2 10
20.04.2018 20:00:00 8,7 7,3 22 12 29 16 NNW 1022,7 34
20.04.2018 19:00:00 8,8 7,3 31 17 29 16 NW 1022,5 10
20.04.2018 18:00:00 9,2 7,5 22 12 25 14 NW 1022,7 28
20.04.2018 17:00:00 9,1 7,3 25 14 29 16 NW 1022,6 31
20.04.2018 16:00:00 9,2 7,5 25 14 29 16 NNW 1022,5 20
20.04.2018 15:00:00 9,2 7,6 29 16 36 19 NW 1022,4 12
20.04.2018 14:00:00 9,5 7,6 37 20 32 18 NNW 1022,3 8
20.04.2018 13:00:00 9,7 7,1 35 19 32 18 NNW 1022,1 7
20.04.2018 12:00:00 10,5 7,0 29 16 29 16 NW 1021,7 6
20.04.2018 11:00:00 9,8 6,7 11 6 22 12 W 1021,2 6
20.04.2018 10:00:00 9,5 6,9 4 2 14 8 - 1020,9 6
20.04.2018 09:00:00 10,1 7,1 4 2 7 4 ZZO 1020,9 7
20.04.2018 08:00:00 10,3 7,1 7 4 22 12 NW 1021,1 4,6
20.04.2018 07:00:00 9,9 7,0 18 10 25 14 W 1021,2 4,8
20.04.2018 06:00:00 11,1 7,1 26 14 29 16 WZW 1021,4 5
20.04.2018 05:00:00 11,9 7,2 7 4 22 12 ZW 1021,5 8
20.04.2018 04:00:00 13,3 6,3 15 8 14 8 Z 1021,5 9
20.04.2018 03:00:00 12,7 7,6 11 6 11 6 Z 1021,9 11
20.04.2018 02:00:00 11,5 7,9 8 4 11 6 Z 1022,8 8
20.04.2018 01:00:00 11,7 7,9 11 6 11 6 Z 1023,2 8
20.04.2018 00:00:00 11,7 7,7 11 6 18 10 Z 1023,5 9
19.04.2018 23:00:00 12,0 7,6 14 8 18 10 Z 1024,0 9
19.04.2018 22:00:00 12,6 7,7 18 10 22 12 ZZO 1024,2 9
19.04.2018 21:00:00 12,5 7,5 14 8 18 10 Z 1023,8 10
19.04.2018 20:00:00 12,4 7,5 18 10 22 12 Z 1023,9 11
19.04.2018 19:00:00 11,7 7,3 21 11 22 12 Z 1024,2 9
19.04.2018 18:00:00 10,8 6,9 24 13 25 14 ZZO 1024,7 9
19.04.2018 17:00:00 11,8 7,1 26 14 25 14 Z 1024,5 9
19.04.2018 16:00:00 10,3 6,7 26 14 32 18 Z 1025,2 10
19.04.2018 15:00:00 11,3 6,9 35 19 36 19 ZZW 1025,5 10
19.04.2018 14:00:00 10,8 6,9 39 21 40 21 ZZW 1025,5 9
19.04.2018 13:00:00 10,3 6,7 35 19 32 18 Z 1025,8 10
19.04.2018 12:00:00 10,7 6,7 39 21 36 19 Z 1025,8 10
19.04.2018 11:00:00 10,5 6,6 41 22 36 19 Z 1025,7 10
19.04.2018 10:00:00 10,2 6,6 44 24 43 23 Z 1025,5 10
19.04.2018 09:00:00 10,7 6,7 44 24 43 23 ZZO 1025,3 10
19.04.2018 08:00:00 10,6 6,8 48 26 - - ZZO 1025,3 10
19.04.2018 07:00:00 11,9 7,5 43 23 50 27 ZZO 1025,3 14
19.04.2018 06:00:00 12,3 7,8 61 33 58 31 Z 1025,6 10
19.04.2018 05:00:00 10,9 7,1 47 25 50 27 ZZO 1026,3 14
19.04.2018 04:00:00 10,5 6,9 43 23 50 27 ZZO 1026,7 13
19.04.2018 03:00:00 10,5 7,0 44 24 50 27 ZZO 1027,1 9
19.04.2018 02:00:00 11,1 7,0 48 26 47 25 ZZO 1027,7 10
19.04.2018 01:00:00 14,0 8,0 44 24 43 23 ZZO 1027,8 10
19.04.2018 00:00:00 10,9 7,4 41 22 40 21 Z 1028,0 10
18.04.2018 23:00:00 10,5 7,7 42 23 40 21 Z 1028,3 10
18.04.2018 22:00:00 9,7 7,6 35 19 36 19 Z 1028,8 10
18.04.2018 21:00:00 10,9 7,9 28 15 36 19 Z 1028,7 10
18.04.2018 20:00:00 10,0 7,7 39 21 40 21 ZZW 1028,6 10
18.04.2018 19:00:00 9,0 7,1 31 17 40 21 Z 1028,8 10
18.04.2018 18:00:00 10,2 7,5 46 25 43 23 ZW 1028,7 10
18.04.2018 17:00:00 9,2 6,9 41 22 43 23 ZZW 1028,9 10
18.04.2018 16:00:00 9,9 7,2 44 24 47 25 ZZW 1028,9 10
18.04.2018 15:00:00 9,7 7,0 48 26 47 25 ZZW 1029,0 10
18.04.2018 14:00:00 9,5 7,1 48 26 54 29 ZZW 1029,0 10
18.04.2018 13:00:00 10,1 7,5 54 29 54 29 ZZW 1028,2 10
18.04.2018 12:00:00 9,2 6,8 48 26 54 29 ZZW 1028,0 10
18.04.2018 11:00:00 9,5 7,0 52 28 54 29 ZW 1027,7 10
18.04.2018 10:00:00 8,9 6,4 42 23 43 23 ZW 1027,6 10

tt = temperatuur
td = dauwpunt
ff = windsnelheid
fx = windstoten
dd = windrichting
ppp = luchtdruk
vv = zicht

Weerstations in de omgeving